Temp
-10 -10 -10 -10 -10 -10 -10 -10 -10 -10 -10 -10 -10 -10 -11 -11 -11 -12 -12 -12 -12 -13 -14 -13 -13 -13 -14 -14 -14 -13 -12 -12 -13 -12 -12 -12 -11 -11 -12 -11 -11 -10 -10 -9 -9 -9 -9 -10 -10
-10 -10 -10 -10 -10 -11 -10 -10 -10 -10 -10 -10 -11 -11 -11 -12 -12 -12 -13 -12 -13 -14 -14 -14 -14 -15 -15 -14 -14 -13 -13 -13 -13 -12 -12 -12 -11 -11 -11 -11 -11 -10 -9 -9 -10 -10 -10 -10 -10
-10 -11 -11 -10 -10 -11 -11 -10 -10 -10 -10 -11 -11 -12 -12 -13 -13 -12 -13 -13 -12 -13 -15 -15 -15 -15 -14 -14 -14 -13 -13 -13 -12 -12 -12 -12 -12 -12 -12 -12 -11 -10 -10 -10 -10 -10 -10 -10 -10
-11 -11 -11 -11 -11 -11 -11 -10 -10 -10 -11 -11 -12 -12 -12 -13 -12 -12 -13 -12 -13 -13 -15 -15 -15 -15 -15 -14 -14 -12 -13 -12 -12 -12 -12 -12 -11 -12 -12 -12 -12 -11 -11 -11 -10 -10 -10 -11 -11
-11 -11 -11 -11 -11 -11 -11 -11 -10 -10 -11 -11 -12 -11 -11 -12 -12 -12 -12 -13 -13 -14 -14 -15 -14 -15 -14 -13 -13 -13 -11 -13 -13 -13 -13 -12 -12 -12 -12 -12 -12 -12 -12 -12 -11 -11 -11 -11 -11
-11 -11 -11 -11 -11 -11 -11 -11 -11 -11 -11 -11 -12 -11 -12 -12 -12 -12 -12 -13 -13 -13 -14 -14 -15 -14 -14 -13 -12 -12 -13 -13 -13 -13 -13 -13 -12 -12 -11 -11 -12 -13 -12 -11 -11 -11 -11 -11 -12
-11 -11 -11 -12 -11 -11 -11 -11 -11 -11 -11 -12 -12 -12 -13 -13 -12 -12 -12 -12 -13 -14 -14 -14 -14 -14 -13 -13 -13 -12 -13 -13 -13 -13 -12 -12 -12 -12 -11 -12 -12 -12 -12 -11 -11 -11 -11 -12 -12
-11 -11 -11 -12 -11 -11 -11 -11 -11 -11 -11 -12 -12 -12 -12 -12 -13 -13 -13 -13 -13 -14 -14 -14 -14 -14 -13 -13 -12 -13 -13 -13 -13 -12 -12 -12 -12 -12 -12 -12 -12 -12 -13 -12 -12 -11 -12 -12 -11
-11 -11 -11 -12 -11 -11 -11 -12 -11 -11 -11 -12 -12 -12 -12 -13 -13 -13 -13 -12 -12 -14 -14 -14 -14 -13 -13 -13 -13 -13 -13 -13 -13 -12 -12 -11 -12 -12 -11 -12 -12 -12 -12 -12 -12 -11 -12 -12 -11
-11 -11 -12 -12 -11 -11 -12 -11 -12 -11 -12 -12 -12 -12 -13 -13 -13 -12 -12 -13 -13 -13 -13 -14 -14 -14 -13 -13 -13 -13 -13 -13 -13 -12 -11 -12 -12 -12 -12 -12 -12 -12 -12 -12 -12 -12 -11 -12 -12
-11 -12 -12 -12 -11 -12 -12 -12 -12 -12 -12 -12 -12 -13 -13 -13 -12 -12 -12 -12 -13 -13 -13 -13 -14 -14 -14 -13 -13 -13 -13 -13 -13 -12 -12 -12 -12 -12 -12 -11 -11 -12 -12 -12 -12 -12 -12 -12 -12
-11 -12 -12 -12 -11 -11 -12 -12 -12 -12 -12 -12 -12 -13 -13 -13 -12 -12 -12 -12 -12 -13 -13 -13 -13 -13 -13 -14 -14 -14 -14 -14 -13 -12 -11 -11 -12 -12 -12 -12 -12 -12 -12 -12 -12 -12 -12 -12 -12
-12 -12 -12 -12 -11 -11 -12 -12 -12 -13 -12 -12 -13 -13 -13 -13 -13 -12 -12 -12 -12 -12 -13 -13 -13 -13 -13 -14 -13 -13 -13 -13 -12 -12 -12 -11 -11 -11 -11 -12 -12 -12 -11 -12 -12 -11 -12 -12 -12
-12 -12 -12 -12 -12 -11 -12 -12 -12 -12 -13 -13 -13 -13 -14 -14 -13 -13 -12 -12 -12 -12 -13 -13 -13 -13 -13 -13 -13 -14 -13 -13 -12 -12 -11 -11 -11 -11 -12 -12 -12 -12 -11 -12 -11 -11 -12 -12 -12
-12 -12 -12 -12 -12 -11 -12 -13 -12 -13 -13 -13 -13 -14 -14 -14 -13 -13 -12 -12 -12 -12 -12 -12 -13 -13 -13 -13 -13 -13 -13 -13 -12 -12 -12 -12 -11 -12 -12 -12 -12 -12 -12 -12 -11 -11 -12 -12 -12
-12 -12 -12 -12 -12 -12 -12 -13 -13 -12 -13 -13 -13 -13 -14 -14 -14 -13 -13 -12 -12 -13 -12 -12 -12 -13 -13 -13 -12 -13 -13 -13 -13 -12 -12 -12 -12 -12 -12 -12 -12 -12 -12 -12 -12 -12 -13 -13 -13
-12 -12 -13 -13 -12 -11 -12 -12 -14 -13 -13 -13 -13 -13 -13 -14 -14 -13 -13 -13 -13 -13 -13 -13 -13 -13 -13 -12 -12 -12 -13 -14 -13 -13 -12 -12 -12 -12 -12 -12 -12 -12 -13 -12 -12 -12 -13 -14 -13
-12 -13 -13 -13 -13 -12 -12 -12 -13 -13 -13 -13 -14 -13 -14 -14 -14 -14 -13 -13 -14 -14 -14 -13 -13 -12 -12 -12 -12 -12 -13 -13 -14 -13 -13 -12 -13 -12 -13 -13 -13 -13 -13 -13 -13 -13 -14 -14 -14
-13 -13 -13 -13 -13 -13 -12 -12 -12 -13 -13 -13 -13 -13 -13 -14 -14 -14 -14 -14 -14 -15 -14 -13 -13 -12 -12 -13 -13 -13 -13 -13 -14 -13 -13 -13 -13 -13 -13 -13 -13 -13 -13 -14 -13 -14 -14 -14 -13
-13 -13 -13 -13 -13 -14 -13 -12 -12 -12 -13 -13 -13 -13 -14 -14 -14 -14 -14 -14 -14 -15 -14 -14 -13 -13 -13 -13 -13 -13 -13 -14 -13 -13 -13 -13 -14 -14 -14 -14 -14 -14 -14 -14 -14 -15 -14 -14 -14
-13 -13 -13 -13 -13 -13 -12 -12 -12 -13 -13 -14 -14 -14 -14 -14 -14 -14 -14 -14 -14 -14 -14 -14 -14 -14 -14 -13 -14 -13 -13 -13 -13 -13 -14 -14 -14 -14 -14 -14 -14 -14 -14 -14 -14 -14 -14 -14 -15
-13 -14 -13 -13 -13 -13 -13 -12 -12 -13 -13 -13 -13 -13 -14 -14 -14 -14 -14 -14 -14 -14 -13 -14 -14 -14 -13 -14 -14 -14 -13 -13 -13 -14 -14 -14 -14 -14 -14 -14 -14 -14 -14 -14 -14 -14 -14 -15 -16
-13 -14 -13 -13 -13 -12 -12 -12 -12 -13 -14 -14 -13 -13 -13 -14 -14 -14 -14 -14 -14 -13 -13 -14 -14 -14 -14 -13 -14 -14 -14 -13 -13 -13 -14 -14 -14 -14 -14 -14 -14 -14 -14 -15 -15 -15 -15 -15 -15
-14 -14 -13 -13 -13 -13 -12 -13 -12 -13 -14 -14 -14 -13 -13 -14 -13 -14 -14 -14 -14 -14 -14 -14 -14 -14 -14 -13 -13 -13 -14 -13 -13 -13 -13 -14 -13 -14 -14 -14 -14 -14 -14 -15 -15 -15 -15 -15 -15
-14 -14 -14 -13 -13 -12 -12 -12 -13 -13 -14 -14 -14 -13 -13 -13 -13 -13 -14 -14 -14 -14 -14 -14 -14 -14 -14 -14 -14 -13 -13 -13 -13 -13 -13 -13 -14 -14 -14 -14 -14 -14 -14 -15 -16 -16 -16 -15 -15
-14 -14 -14 -14 -14 -13 -13 -13 -13 -13 -14 -14 -14 -13 -13 -13 -14 -14 -13 -14 -14 -14 -14 -14 -14 -14 -14 -14 -14 -14 -14 -14 -14 -14 -14 -14 -14 -14 -14 -14 -14 -14 -14 -14 -15 -16 -16 -15 -15
-14 -14 -14 -14 -13 -13 -14 -13 -13 -13 -14 -14 -14 -14 -13 -13 -14 -14 -13 -14 -14 -14 -14 -14 -14 -14 -14 -14 -14 -14 -14 -14 -14 -14 -14 -14 -14 -14 -14 -14 -14 -15 -15 -15 -16 -15 -16 -15 -15
-14 -14 -14 -14 -13 -14 -14 -14 -14 -13 -14 -14 -14 -14 -14 -14 -14 -14 -14 -14 -14 -13 -14 -14 -14 -14 -14 -14 -15 -14 -14 -14 -15 -15 -15 -15 -15 -15 -15 -15 -15 -16 -15 -16 -16 -16 -16 -15 -15
-16 -15 -15 -15 -14 -14 -14 -16 -13 -14 -15 -15 -14 -14 -14 -15 -15 -14 -14 -14 -14 -14 -14 -14 -14 -14 -14 -14 -14 -15 -15 -15 -15 -15 -15 -15 -15 -15 -15 -15 -15 -15 -15 -16 -16 -16 -16 -16 -16
-15 -15 -15 -15 -15 -15 -15 -15 -15 -14 -14 -15 -15 -15 -15 -15 -15 -15 -15 -14 -14 -14 -14 -14 -14 -14 -15 -15 -15 -15 -15 -15 -15 -15 -15 -15 -15 -15 -15 -16 -16 -15 -16 -16 -16 -16 -16 -16 -16
Height
5833 5831 5829 5828 5829 5825 5821 5819 5818 5815 5812 5809 5807 5805 5803 5800 5799 5801 5796 5794 5793 5791 5791 5790 5792 5793 5794 5797 5801 5804 5806 5809 5811 5813 5816 5820 5824 5826 5827 5832 5835 5836 5838 5840 5842 5842 5843 5845 5844
5829 5826 5824 5824 5824 5821 5817 5815 5812 5810 5807 5805 5802 5799 5797 5795 5793 5791 5788 5787 5788 5787 5786 5783 5785 5789 5790 5791 5795 5799 5801 5803 5807 5810 5812 5815 5818 5822 5824 5827 5832 5833 5835 5837 5840 5839 5839 5841 5842
5825 5822 5821 5819 5819 5817 5815 5811 5808 5805 5802 5799 5797 5795 5793 5791 5788 5786 5784 5784 5783 5782 5780 5777 5779 5783 5783 5783 5787 5790 5794 5797 5800 5804 5809 5812 5814 5816 5820 5824 5829 5831 5832 5834 5835 5836 5836 5837 5840
5821 5819 5817 5814 5813 5812 5810 5807 5804 5802 5798 5795 5793 5792 5789 5786 5784 5783 5782 5781 5778 5777 5774 5770 5771 5773 5775 5779 5779 5776 5782 5789 5795 5799 5803 5806 5808 5811 5814 5819 5824 5827 5829 5831 5832 5833 5833 5835 5837
5817 5815 5812 5810 5809 5807 5805 5803 5800 5798 5794 5790 5789 5787 5785 5782 5780 5779 5778 5777 5774 5771 5769 5764 5763 5767 5770 5768 5770 5770 5771 5781 5783 5791 5797 5800 5804 5805 5808 5813 5819 5822 5825 5828 5828 5831 5831 5832 5834
5812 5811 5809 5807 5805 5804 5802 5800 5797 5794 5789 5786 5785 5784 5781 5778 5776 5774 5774 5772 5771 5766 5761 5758 5760 5761 5762 5746 5767 5772 5773 5774 5777 5784 5789 5794 5799 5802 5804 5808 5813 5817 5821 5824 5825 5827 5828 5829 5831
5808 5807 5805 5803 5802 5800 5798 5796 5794 5791 5785 5782 5782 5780 5778 5775 5772 5770 5767 5765 5766 5763 5757 5754 5753 5757 5756 5758 5767 5768 5769 5772 5773 5779 5781 5787 5793 5794 5799 5800 5805 5811 5817 5821 5821 5823 5825 5826 5828
5803 5802 5801 5799 5798 5796 5794 5792 5790 5787 5782 5779 5778 5777 5776 5773 5770 5766 5761 5759 5760 5759 5755 5750 5749 5750 5755 5756 5759 5764 5768 5768 5770 5773 5778 5783 5787 5790 5793 5798 5802 5807 5812 5815 5817 5820 5821 5823 5824
5798 5798 5796 5795 5794 5793 5790 5788 5786 5783 5779 5776 5774 5773 5772 5770 5767 5763 5758 5754 5754 5754 5754 5750 5748 5746 5750 5752 5755 5758 5760 5763 5765 5765 5768 5775 5782 5784 5785 5793 5797 5801 5806 5810 5814 5816 5817 5818 5819
5793 5793 5791 5791 5789 5788 5786 5784 5782 5780 5776 5772 5772 5770 5769 5767 5764 5760 5756 5753 5751 5751 5751 5751 5748 5745 5748 5749 5751 5752 5755 5758 5758 5759 5759 5767 5774 5778 5783 5787 5793 5796 5800 5805 5809 5811 5813 5813 5815
5789 5788 5786 5785 5785 5785 5783 5781 5779 5776 5773 5770 5768 5766 5766 5763 5761 5758 5754 5751 5750 5748 5749 5748 5748 5747 5745 5746 5747 5750 5749 5748 5753 5754 5758 5760 5767 5773 5778 5781 5786 5790 5795 5800 5804 5806 5808 5809 5812
5783 5782 5781 5779 5780 5780 5780 5777 5775 5772 5770 5768 5764 5763 5762 5760 5757 5754 5752 5750 5748 5745 5744 5744 5743 5744 5744 5744 5744 5745 5745 5745 5746 5748 5744 5752 5760 5766 5772 5777 5782 5787 5791 5795 5798 5800 5803 5804 5806
5777 5777 5777 5775 5774 5775 5776 5774 5771 5768 5765 5764 5761 5759 5758 5757 5754 5751 5748 5747 5746 5743 5742 5740 5739 5738 5738 5738 5739 5739 5737 5737 5736 5737 5745 5752 5756 5760 5767 5772 5777 5781 5785 5789 5792 5796 5798 5799 5801
5771 5771 5771 5771 5768 5770 5771 5770 5766 5764 5761 5760 5758 5757 5754 5752 5749 5746 5744 5743 5742 5741 5740 5738 5736 5736 5735 5735 5735 5735 5732 5733 5731 5734 5739 5746 5751 5756 5762 5767 5771 5776 5780 5783 5786 5790 5792 5793 5797
5764 5765 5765 5765 5763 5766 5766 5766 5762 5760 5758 5756 5754 5752 5750 5748 5746 5743 5740 5738 5737 5736 5736 5736 5734 5733 5733 5732 5733 5732 5729 5730 5730 5733 5740 5745 5749 5753 5758 5762 5765 5769 5773 5776 5782 5785 5786 5789 5790
5758 5760 5761 5759 5757 5760 5762 5761 5757 5756 5754 5753 5750 5747 5746 5743 5743 5741 5737 5735 5734 5733 5733 5733 5732 5730 5728 5727 5727 5727 5728 5728 5729 5733 5738 5741 5745 5749 5753 5756 5758 5762 5768 5772 5776 5779 5781 5782 5784
5753 5756 5756 5752 5751 5753 5757 5758 5752 5752 5750 5748 5746 5742 5741 5740 5738 5738 5735 5732 5731 5729 5729 5729 5728 5725 5723 5722 5721 5722 5724 5725 5726 5729 5734 5737 5741 5745 5748 5750 5754 5760 5765 5766 5770 5774 5774 5775 5778
5747 5748 5748 5748 5745 5747 5750 5752 5750 5749 5746 5744 5742 5739 5737 5737 5735 5734 5733 5730 5728 5726 5726 5724 5723 5719 5718 5717 5718 5719 5721 5721 5724 5727 5730 5733 5738 5741 5744 5748 5754 5759 5759 5760 5765 5768 5769 5773 5774
5735 5740 5743 5743 5740 5742 5742 5742 5743 5743 5742 5739 5737 5735 5733 5734 5733 5731 5731 5728 5726 5724 5724 5722 5719 5715 5715 5715 5717 5717 5719 5720 5723 5725 5728 5730 5735 5738 5744 5747 5750 5753 5754 5756 5760 5763 5764 5767 5769
5727 5733 5738 5737 5733 5733 5736 5738 5738 5738 5737 5735 5733 5731 5730 5730 5730 5729 5729 5726 5724 5723 5722 5720 5717 5714 5714 5714 5715 5716 5718 5719 5722 5724 5727 5730 5733 5737 5740 5743 5746 5748 5751 5753 5756 5758 5760 5761 5763
5721 5725 5731 5730 5724 5726 5728 5734 5733 5735 5733 5730 5729 5726 5727 5726 5727 5727 5727 5725 5723 5721 5721 5719 5718 5716 5714 5715 5716 5715 5714 5716 5720 5724 5726 5728 5731 5734 5736 5739 5743 5745 5748 5749 5751 5754 5755 5757 5758
5712 5720 5722 5722 5718 5721 5720 5728 5729 5730 5728 5725 5724 5723 5722 5722 5723 5724 5725 5723 5721 5720 5719 5719 5718 5716 5715 5715 5715 5714 5713 5712 5715 5719 5722 5725 5728 5730 5733 5736 5738 5741 5743 5746 5747 5749 5750 5753 5754
5708 5709 5713 5710 5712 5713 5719 5720 5725 5727 5724 5720 5719 5719 5718 5718 5720 5721 5721 5721 5719 5719 5719 5718 5717 5715 5715 5716 5714 5714 5715 5713 5714 5717 5720 5722 5725 5727 5729 5733 5734 5736 5738 5740 5743 5744 5746 5747 5749
5695 5699 5702 5704 5707 5705 5716 5711 5723 5722 5720 5716 5714 5714 5714 5715 5716 5718 5719 5718 5717 5716 5717 5717 5716 5715 5714 5715 5715 5713 5715 5714 5713 5713 5719 5722 5723 5725 5726 5727 5729 5732 5733 5735 5738 5740 5742 5744 5748
5685 5692 5695 5699 5699 5701 5706 5704 5716 5715 5714 5713 5711 5709 5710 5710 5712 5714 5716 5716 5715 5714 5714 5715 5715 5714 5714 5713 5714 5714 5714 5714 5714 5715 5717 5720 5722 5724 5724 5725 5727 5729 5729 5732 5733 5735 5737 5743 5745
5678 5684 5688 5689 5692 5696 5695 5696 5704 5709 5707 5708 5707 5705 5704 5706 5708 5710 5711 5712 5711 5711 5711 5712 5713 5714 5714 5713 5713 5714 5715 5715 5715 5716 5717 5719 5720 5722 5723 5724 5727 5727 5726 5728 5730 5732 5734 5736 5740
5667 5671 5681 5682 5682 5684 5688 5689 5695 5703 5702 5702 5702 5700 5700 5702 5704 5706 5707 5707 5707 5708 5709 5709 5711 5712 5713 5713 5713 5713 5714 5714 5714 5715 5715 5716 5718 5720 5721 5722 5724 5724 5725 5726 5728 5728 5730 5732 5733
5656 5663 5668 5670 5672 5675 5680 5684 5688 5697 5696 5696 5697 5696 5695 5697 5699 5701 5702 5703 5704 5704 5705 5706 5707 5708 5709 5710 5710 5710 5711 5712 5713 5713 5714 5713 5714 5714 5715 5717 5717 5719 5719 5719 5721 5724 5725 5725 5726
5652 5654 5661 5664 5666 5670 5674 5680 5677 5688 5690 5691 5692 5691 5691 5692 5694 5696 5698 5698 5699 5700 5702 5703 5704 5705 5705 5706 5707 5707 5707 5708 5709 5709 5709 5709 5710 5710 5711 5712 5713 5713 5713 5714 5715 5716 5717 5717 5718
5643 5647 5651 5653 5658 5661 5665 5670 5668 5681 5682 5684 5685 5686 5686 5687 5688 5690 5692 5693 5694 5696 5697 5699 5700 5701 5701 5701 5701 5703 5704 5704 5704 5703 5703 5703 5703 5703 5703 5703 5705 5706 5707 5707 5709 5710 5709 5708 5708
Wind_Speed
31 31 28 26 23 23 23 22 20 23 23 25 23 23 24 24 25 23 25 25 26 24 26 30 30 35 40 41 35 35 38 26 26 21 21 25 25 26 23 22 21 18 19 21 18 12 10 9 8
31 29 26 24 22 20 23 20 22 22 22 22 22 22 23 24 25 25 26 27 26 27 26 30 33 33 33 37 40 33 31 31 28 19 16 23 24 34 25 20 25 25 23 20 17 14 12 11 11
30 26 24 24 21 17 18 20 22 23 21 20 21 22 24 25 25 26 27 26 23 26 31 34 34 30 27 31 26 33 33 30 33 29 23 21 30 29 26 22 29 28 23 19 17 15 13 13 13
26 24 24 24 22 14 16 20 22 23 20 19 20 21 25 25 25 26 25 25 27 27 28 31 36 33 32 27 41 38 38 38 34 30 32 23 28 38 31 29 31 27 23 20 18 17 15 14 14
25 27 24 22 18 14 17 20 23 22 19 18 19 21 23 24 26 25 26 27 29 27 28 27 26 26 26 24 22 16 23 32 35 31 27 27 29 36 29 34 31 28 24 28 23 19 16 15 15
27 26 22 21 15 15 17 20 21 20 20 20 19 19 23 25 23 27 25 27 26 27 29 22 22 30 29 34 26 25 28 27 22 32 32 28 29 35 39 36 36 30 27 26 24 19 17 17 17
27 24 22 19 16 16 18 21 20 18 20 20 19 19 21 27 25 25 25 26 19 22 28 24 19 22 20 20 20 18 27 26 24 24 30 33 30 34 32 44 38 31 31 28 24 21 18 18 18
27 23 23 17 16 18 18 22 21 19 19 20 19 19 21 22 22 23 23 23 20 22 26 23 13 21 22 20 19 19 22 26 23 24 30 37 31 32 36 29 34 33 33 29 26 22 18 18 18
26 22 20 16 16 18 18 23 22 20 21 21 18 20 21 22 28 26 21 19 17 15 19 20 9 13 19 24 22 23 22 24 23 19 23 33 34 30 35 28 39 36 35 30 27 21 20 19 17
24 22 19 16 18 18 19 20 21 21 22 22 19 19 21 23 24 19 21 17 15 12 9 15 12 5 13 18 20 19 20 19 18 23 21 31 27 30 31 29 43 40 35 33 29 25 22 20 20
24 21 20 18 20 19 19 20 20 21 20 21 21 22 21 19 20 22 18 17 17 15 16 11 11 11 13 12 14 16 16 18 22 25 37 42 39 33 30 36 46 42 36 33 30 27 25 22 22
22 22 21 23 22 21 20 19 19 22 21 17 20 19 18 22 21 20 16 16 20 23 19 16 15 15 15 14 12 16 19 23 23 35 37 44 38 30 36 36 41 44 35 38 32 29 26 23 23
21 24 20 24 23 22 19 18 18 23 21 17 19 20 24 24 23 19 16 15 17 23 22 21 21 19 18 17 17 17 21 22 16 31 42 49 45 44 43 34 42 51 44 40 33 29 30 28 26
24 24 19 21 25 20 18 18 20 22 20 20 20 21 23 21 23 20 15 13 19 19 20 20 22 22 21 20 20 21 22 19 11 28 39 40 42 42 35 34 38 50 46 45 40 32 28 29 29
25 23 22 20 25 21 20 18 19 19 22 21 20 20 19 22 21 19 17 15 17 14 17 16 17 18 19 20 23 23 24 19 18 23 38 41 48 40 39 35 45 46 51 49 42 34 30 29 37
26 24 22 21 27 24 21 19 21 21 24 22 22 24 16 20 21 18 18 14 13 12 17 17 17 19 21 22 23 23 24 24 19 32 30 34 41 36 40 39 44 39 51 45 40 38 34 35 38
27 23 23 26 30 28 22 18 23 21 24 21 21 22 19 18 21 18 17 16 10 11 12 13 17 21 22 22 21 21 23 22 19 19 34 31 39 36 31 35 27 35 28 28 39 33 33 33 34
28 25 28 28 33 30 25 20 21 18 21 20 21 22 18 14 20 18 16 14 11 10 11 14 17 19 18 16 16 21 21 19 17 12 14 27 24 27 18 18 24 22 21 23 36 31 26 26 24
35 29 30 30 33 29 29 25 19 18 17 19 21 19 18 12 18 18 15 11 8 9 7 6 11 11 9 14 13 18 20 15 13 14 19 16 13 19 20 15 16 14 16 19 23 27 27 26 26
37 32 28 32 35 33 30 25 23 20 18 18 17 17 18 15 17 17 15 8 5 5 2 5 8 4 7 8 12 13 11 15 18 20 15 19 15 12 14 13 17 16 18 19 23 25 26 26 26
38 34 28 34 38 36 34 24 26 19 16 15 18 19 18 19 16 16 14 7 5 4 3 5 6 4 5 14 13 19 20 16 18 20 17 14 13 15 16 19 20 19 22 22 26 26 26 28 24
40 32 34 37 41 38 38 26 21 13 17 20 18 18 19 20 16 16 15 8 5 5 4 3 4 4 2 2 4 7 16 20 21 22 18 18 21 17 19 23 25 25 24 24 27 27 27 27 24
37 38 37 41 41 41 36 33 23 14 16 21 18 15 17 20 16 17 15 12 7 6 5 3 3 2 2 2 1 1 3 10 21 28 25 23 22 21 23 29 31 31 29 28 29 30 27 25 24
41 40 40 39 39 44 32 38 19 15 16 20 18 16 14 18 17 15 11 15 12 9 8 7 6 5 4 3 2 1 1 3 4 16 19 20 25 24 23 22 25 25 24 24 25 26 23 21 24
45 42 41 39 41 43 36 40 21 19 17 18 17 18 15 18 17 15 13 18 17 12 10 10 9 7 5 3 3 3 3 4 4 6 7 6 10 14 15 15 15 15 14 15 18 18 18 25 24
43 42 43 43 42 41 42 42 30 19 19 18 16 17 15 14 17 19 18 18 22 13 12 11 7 6 5 4 2 4 5 6 8 10 12 12 11 13 14 14 14 13 12 14 16 20 22 25 27
42 46 42 44 47 46 42 43 33 21 23 19 18 18 14 16 18 18 18 14 16 14 15 15 12 10 9 10 8 6 6 6 7 8 9 10 14 16 17 17 18 19 19 18 19 19 22 28 28
43 42 42 43 44 45 43 40 36 21 22 19 18 18 17 20 20 18 18 15 16 17 17 15 16 14 14 15 15 13 10 10 9 11 13 14 16 16 17 19 21 23 22 21 23 24 26 27 28
35 40 39 41 43 40 38 27 36 19 20 17 16 18 19 23 26 24 22 22 19 18 18 15 14 16 15 16 16 15 14 14 13 13 14 14 13 18 20 23 24 24 26 27 28 28 30 32 36
34 36 36 40 38 39 39 36 40 23 24 19 16 20 21 23 25 27 25 23 25 23 21 18 17 18 20 20 20 18 19 20 21 19 19 19 17 18 19 22 27 30 31 31 31 35 36 40 38
Wind_Direction
301 296 298 301 299 304 299 300 300 303 303 305 301 295 292 292 292 286 287 282 282 287 281 275 270 258 251 252 245 241 246 241 229 226 233 235 236 217 200 221 223 221 220 233 233 215 211 217 223
304 299 294 296 298 304 300 297 301 299 305 306 299 296 295 293 288 287 286 287 293 291 276 272 268 260 260 260 251 232 246 242 240 233 237 211 210 210 220 222 227 221 226 227 215 197 195 207 226
301 297 296 296 294 294 293 297 298 302 310 304 297 300 302 295 288 283 283 287 292 285 276 271 262 259 260 246 254 236 229 242 243 247 237 224 210 216 211 224 234 231 223 208 198 197 207 213 226
298 293 290 290 297 293 286 296 298 307 301 293 299 304 302 290 283 281 285 281 280 284 274 277 262 253 239 274 232 219 218 225 239 248 240 228 214 211 216 232 229 224 213 203 213 216 215 223 235
292 294 289 291 295 292 292 298 302 302 293 292 297 303 305 294 286 286 280 275 268 292 284 280 254 242 243 247 241 228 226 223 223 228 229 221 213 216 231 215 210 209 210 233 216 215 221 229 239
287 290 286 292 295 286 292 297 301 305 294 293 300 306 303 300 293 289 288 282 288 284 287 283 256 227 231 243 228 212 248 245 238 230 225 227 228 210 217 218 207 204 222 214 213 220 231 240 241
285 284 284 282 278 282 291 294 303 306 295 292 299 300 304 298 295 296 297 296 290 277 284 281 265 218 238 234 228 230 244 242 258 250 213 213 215 202 222 205 199 211 210 217 226 229 242 241 235
282 277 283 276 276 277 290 298 309 311 293 287 294 300 312 309 320 310 298 297 291 278 278 287 286 239 229 233 227 231 232 243 247 253 219 219 213 212 214 203 211 203 210 220 225 233 245 237 236
273 273 279 269 271 274 289 301 312 309 293 285 297 300 310 307 311 306 314 301 291 278 281 287 293 245 233 234 231 234 248 255 255 252 230 237 212 212 226 227 210 212 213 220 228 236 242 235 243
265 271 268 259 263 273 286 296 310 311 299 291 296 298 308 311 313 308 310 289 283 275 276 277 297 271 215 218 219 237 244 237 257 248 238 195 209 215 218 220 212 216 214 221 230 240 240 241 253
259 269 268 252 256 269 282 292 308 309 293 289 297 300 301 309 316 319 308 294 278 277 289 265 266 264 267 214 212 230 250 255 254 235 232 232 211 213 215 210 214 216 213 225 231 241 238 245 249
253 263 265 259 259 266 277 288 310 304 299 297 297 302 295 300 317 317 302 292 284 280 282 275 268 266 257 257 242 245 256 263 253 242 234 202 205 216 208 207 222 217 223 225 229 232 242 243 252
251 257 271 264 266 270 282 285 302 298 307 307 300 300 297 300 311 306 296 277 288 285 277 276 271 268 269 261 257 261 263 267 261 222 208 213 228 220 226 219 225 225 230 221 221 234 237 239 251
247 251 264 260 267 273 282 294 287 296 301 317 310 302 303 307 311 306 314 294 297 279 268 270 262 257 260 262 255 253 251 256 261 227 214 212 220 220 219 222 223 224 225 223 229 237 236 239 250
248 249 255 260 264 275 283 294 292 292 299 309 315 303 308 315 315 307 322 314 307 281 262 265 256 255 261 262 257 248 247 237 221 231 216 223 227 229 222 234 232 229 226 228 233 238 241 247 249
246 249 257 261 265 269 277 291 289 290 297 305 315 309 303 306 312 307 322 318 297 274 255 254 251 260 266 268 258 238 233 232 225 226 222 235 232 233 232 235 241 228 221 229 229 241 239 248 251
245 252 257 261 259 266 272 273 288 293 298 301 311 308 308 312 302 314 318 314 309 288 277 264 261 268 276 271 245 229 231 227 225 217 225 235 222 228 230 227 224 209 240 237 232 233 237 241 241
249 248 250 253 262 271 274 273 275 284 294 300 309 302 305 303 296 309 316 312 298 299 297 287 282 280 278 251 232 223 225 234 236 224 219 220 220 222 202 209 210 221 231 235 232 234 233 236 243
244 245 249 254 261 267 279 278 281 290 295 295 305 294 295 288 295 303 311 324 312 299 294 292 295 295 243 196 217 219 224 226 248 235 207 182 182 195 202 201 207 230 233 229 225 221 230 238 251
242 244 248 255 262 265 264 271 279 289 294 291 298 289 285 284 291 293 305 331 336 309 292 349 359 291 188 200 205 221 212 221 228 215 214 205 201 202 215 228 240 238 236 228 217 229 232 238 251
241 243 242 249 258 260 264 264 270 285 283 281 288 287 274 274 283 286 294 301 304 314 312 358 347 39 200 214 218 229 244 235 231 219 219 217 225 235 241 242 253 243 236 225 222 232 240 247 256
239 243 242 248 253 259 262 269 276 286 285 283 279 287 269 267 270 279 289 268 278 276 303 346 343 351 17 185 185 232 244 244 234 227 245 237 241 246 249 241 250 248 249 249 244 246 246 251 249
239 239 241 245 250 257 262 268 273 280 272 273 277 287 274 268 261 276 281 273 258 265 269 289 309 321 335 292 312 303 289 252 242 233 241 246 247 247 255 257 251 245 251 255 257 256 257 249 238
230 235 239 245 252 257 260 266 261 273 253 262 273 272 287 268 258 266 288 286 285 267 263 264 277 287 293 314 267 161 279 301 303 240 228 246 261 260 252 251 251 251 250 253 255 256 253 236 228
227 231 240 245 249 257 260 264 260 260 254 258 263 272 273 253 254 254 266 287 304 280 264 273 262 264 273 293 303 259 204 202 189 174 199 227 234 227 226 225 224 224 228 229 227 227 226 243 251
224 229 235 241 249 252 253 259 260 249 264 257 261 264 259 241 252 261 265 280 281 282 258 265 256 249 228 230 291 302 261 225 216 210 209 215 229 242 243 243 239 240 238 240 246 240 237 251 261
223 230 234 239 243 249 252 254 261 251 262 264 267 250 245 234 248 261 266 274 269 276 256 255 263 265 261 257 261 264 273 261 248 243 237 230 226 230 233 234 236 237 238 242 246 247 251 253 256
224 224 224 231 237 245 252 260 261 253 265 265 270 249 236 231 243 256 262 260 267 272 264 256 258 265 273 277 277 274 271 268 267 254 244 238 236 235 236 238 241 241 242 245 242 243 248 251 257
226 230 228 234 241 247 250 253 259 246 259 266 252 244 233 233 241 250 253 253 262 267 264 266 272 270 268 274 275 273 274 280 279 285 292 277 279 253 241 241 246 249 249 249 247 249 255 259 266
229 226 223 227 239 244 248 246 261 253 252 242 236 238 237 231 238 246 248 254 255 256 253 253 264 270 273 274 278 280 290 290 280 271 278 276 263 272 255 264 253 246 247 253 255 256 254 261 277